Location: New Canada
(47.1017°N, 68.5042°W)
Time: 13:47:06
(UTC+00:00)

deb HAPS - Visible Passes

Search period start: 01 December 2023 00:00
Search period end: 11 December 2023 00:00
Orbit: 574 x 1901 km, 81.6° (Epoch: 30 November)

Date Brightness Start Highest point End Pass type
(mag) Time Alt. Az. Time Alt. Az. Time Alt. Az.
01 Dec ? 00:36:08 10° W 00:43:53 22° NW 00:51:48 10° N visible
01 Dec ? 06:29:59 10° N 06:36:34 19° NE 06:42:14 10° E visible
01 Dec ? 08:20:34 10° N 08:30:27 66° ENE 08:37:49 10° SSE visible
01 Dec ? 10:12:48 10° NNW 10:20:51 32° W 10:27:17 10° SW visible
01 Dec ? 22:33:45 10° SSW 22:44:04 65° WNW 22:55:07 10° N visible
02 Dec ? 00:30:08 10° W 00:37:52 22° NW 00:45:43 10° N visible
02 Dec ? 06:24:01 10° N 06:30:29 19° NE 06:36:03 10° E visible
02 Dec ? 08:14:35 10° N 08:24:21 67° ENE 08:31:34 10° SSE visible
02 Dec ? 10:06:51 10° NNW 10:14:42 31° WNW 10:20:59 10° SW visible
02 Dec ? 22:27:40 10° SSW 22:38:03 64° WNW 22:49:04 10° N visible
03 Dec ? 00:24:09 10° W 00:31:52 21° NW 00:39:38 10° N visible
03 Dec ? 06:18:04 10° N 06:24:25 19° NE 06:29:50 10° E visible
03 Dec ? 08:08:37 10° N 08:18:14 67° ENE 08:25:19 10° SSE visible
03 Dec ? 10:00:54 10° NNW 10:08:34 30° WNW 10:14:41 10° SW visible
03 Dec ? 22:21:35 10° SSW 22:32:03 63° WNW 22:43:00 10° N visible
04 Dec ? 00:18:10 10° W 00:25:51 21° NW 00:33:32 10° N visible
04 Dec ? 06:12:06 10° N 06:18:19 19° NE 06:23:37 10° E visible
04 Dec ? 08:02:38 10° N 08:12:26 67° E 08:19:03 10° SSE visible
04 Dec ? 09:54:57 10° NNW 10:03:37 28° W 10:08:21 10° SW visible
04 Dec ? 22:15:30 10° SSW 22:26:02 63° WNW 22:36:55 10° N visible
05 Dec ? 00:12:11 10° W 00:19:49 21° NW 00:27:25 10° N visible
05 Dec ? 06:06:09 10° N 06:10:26 17° NNE 06:10:26 17° NNE visible
05 Dec ? 07:56:38 10° N 08:11:25 18° SSE 08:12:47 10° SSE visible
05 Dec ? 09:48:59 10° NNW 10:01:57 10° SW 10:02:01 10° SW visible
05 Dec ? 22:09:25 10° SSW 22:20:01 62° WNW 22:30:51 10° N visible
06 Dec ? 00:06:12 10° W 00:13:48 21° NW 00:21:17 10° N visible
06 Dec ? 06:00:10 10° N 06:02:49 15° NNE 06:02:49 15° NNE visible
06 Dec ? 07:50:38 10° N 08:07:52 - SSE 07:53:01 19° N visible
06 Dec ? 09:43:01 10° NNW 09:43:15 11° NNW 09:43:15 11° NNW visible
06 Dec ? 22:03:19 10° SSW 22:14:00 61° WNW 22:24:45 10° N visible
07 Dec ? 00:00:14 10° W 00:07:46 20° NW 00:15:08 10° N visible
07 Dec ? 05:54:12 10° N 05:55:44 13° NNE 05:55:44 13° NNE visible
07 Dec ? 07:44:37 10° N 07:45:58 15° N 07:45:58 15° N visible
07 Dec ? 21:57:15 10° SSW 22:07:59 61° WNW 22:18:38 10° N visible
07 Dec ? 23:54:16 10° W 00:01:44 20° NW 00:08:59 10° N visible
08 Dec ? 05:48:13 10° N 05:48:55 11° N 05:48:55 11° N visible
08 Dec ? 07:38:36 10° N 07:39:09 12° N 07:39:09 12° N visible
08 Dec ? 21:51:11 10° SSW 22:01:56 60° WNW 22:12:31 10° N visible
08 Dec ? 23:48:18 10° W 23:55:41 20° NW 00:02:49 10° N visible
09 Dec ? 05:42:14 10° N 05:42:14 10° N 05:42:14 10° N visible
09 Dec ? 21:45:06 10° SSW 21:55:54 60° WNW 22:06:24 10° N visible
09 Dec ? 23:42:21 10° W 23:49:38 19° NW 23:56:37 10° N visible
10 Dec ? 21:39:02 10° SSW 21:49:51 59° WNW 22:00:15 10° N visible
10 Dec ? 23:36:24 10° W 23:43:34 19° NW 23:50:25 10° N visible
